STARLINK-2713 (48602 NORAD) Tracking and Keplerian Element Data

This shows tracking and keplerian element data for the satellite.

Feedback or suggestion? Click here.




ElementValue
Catalog48602
NameSTARLINK-2713
Epoch Orbit2449
Epoch Day287.87040285
Epoch Year2021
RAAN130.0018
Inclination53.0324
Eccentricity0.0001784
Argument of Perigee77.0633
Mean Anonmoly283.0555
Mean Motion15.06379161
Decay Rate-6.92E-06
L11 48602U 21041BB 21287.87040285 -.00000692 00000-0 -27595-4 0 9993
L22 48602 53.0324 130.0018 0001784 77.0633 283.0555 15.06379161 24494

Live tracking and technical data element details for STARLINK-2713 (NORAD 48602). STARLINK-2713 can be tracked NOW for your location showing map with azimuth and elevation plus other details from your city location.

Track the satellite on the map from your city or location and see movement details for azimuth, elevation, latitude, longitude, range, height, and movement on the map or in text.







IsCatalogInMostPopularTable: catalog: 48602, numindb: 43
Update: records affected: 1



GetName: 48602 STARLINK-2713

Hit Count: updated at: Tue, 19 Oct 2021 08:23:34 GMT